Temp
83 83 83 83 83 84 84 84 85 85 84 85 85 85 85 85 85 85 85 85 85 85 85 85 85 84 85 85 85 85 85 85 87 86 86 86 86 87 87 86 86 86
83 83 83 83 82 83 83 85 84 84 83 84 85 85 85 85 85 85 85 85 85 85 85 85 85 85 85 86 85 85 85 85 85 88 85 85 86 87 87 87 87 87
83 83 83 83 84 84 86 85 84 85 85 86 85 85 86 86 85 84 85 85 85 87 85 85 85 85 86 86 85 85 86 85 85 88 85 85 86 86 87 89 89 87
83 83 84 85 86 85 85 84 84 84 86 85 85 87 86 88 85 85 84 84 85 85 86 86 86 87 86 86 85 85 86 85 87 86 85 86 86 87 87 87 88 88
83 83 85 85 86 85 84 84 85 85 85 86 87 85 84 84 84 85 85 84 84 85 85 85 86 86 86 85 85 85 86 86 86 85 85 85 86 85 87 87 86 87
83 83 83 84 85 84 84 85 85 86 86 87 86 87 86 85 85 86 86 86 87 87 87 87 86 87 87 86 85 85 86 87 88 85 85 85 87 88 88 87 86 86
84 84 84 85 85 85 84 84 85 85 86 87 86 86 86 86 85 85 85 86 87 86 88 86 85 86 86 86 84 84 85 85 86 85 85 86 86 86 88 86 85 85
85 86 85 85 86 85 84 85 85 85 85 86 86 86 86 87 86 87 86 86 87 86 85 87 85 84 87 86 85 84 85 87 86 85 84 85 85 85 86 87 86 85
86 86 85 85 86 86 87 87 87 86 86 85 87 88 86 86 87 87 85 85 85 85 84 85 84 85 86 86 85 85 85 86 87 86 85 85 85 85 86 87 86 85
84 85 87 86 86 87 87 88 89 88 86 86 87 89 87 86 87 87 85 83 84 84 84 84 85 85 86 87 85 86 85 85 85 85 86 86 86 87 87 87 87 86
85 86 86 86 87 88 88 89 89 89 88 87 88 88 88 87 86 86 85 84 85 84 84 84 85 86 85 87 87 87 87 87 86 86 86 86 86 86 86 86 86 87
85 86 86 86 87 88 89 89 89 89 89 88 88 87 87 88 87 87 86 84 85 86 85 85 85 85 85 86 88 88 87 87 87 87 87 87 87 88 87 87 87 87
85 86 86 87 86 87 89 89 89 90 89 89 88 88 88 88 89 87 86 86 85 86 87 85 85 86 85 85 86 87 87 86 88 87 87 87 88 88 89 89 89 89
84 86 87 86 87 85 86 88 89 89 88 88 88 87 88 88 89 88 88 88 87 87 87 86 85 85 85 85 85 86 87 86 86 87 88 87 88 88 89 90 90 90
84 85 86 86 86 85 85 86 87 87 87 87 86 87 89 89 89 90 88 87 87 86 86 87 87 86 86 86 85 85 86 87 87 86 87 86 87 89 89 88 89 90
84 84 84 84 84 83 83 84 86 86 87 86 86 86 86 86 87 87 88 88 86 86 86 87 86 87 81 75 77 86 86 88 87 86 86 86 85 86 88 88 89 90
83 83 83 82 83 83 83 83 83 84 84 84 85 85 85 84 85 86 87 88 88 87 87 87 87 87 75 69 69 71 83 86 85 85 85 85 86 84 84 87 88 88
83 83 82 82 83 82 83 83 83 83 83 83 84 84 83 86 85 85 85 87 88 88 88 88 88 78 69 68 68 67 72 84 87 87 87 86 86 86 86 86 87 88
83 83 82 82 82 83 83 83 82 82 82 83 84 84 85 83 83 85 84 85 87 85 87 88 89 76 68 67 67 66 66 74 87 87 87 87 86 86 86 85 86 86
83 83 82 82 83 83 83 82 82 82 83 84 85 84 83 83 85 84 84 83 84 85 84 87 88 77 66 65 65 64 65 69 84 87 87 87 87 87 87 86 85 85
83 83 82 83 83 83 82 82 82 82 83 84 86 85 84 82 84 84 84 84 86 86 86 87 89 73 65 63 63 62 63 67 82 85 86 86 87 87 85 87 86 86
84 83 83 83 83 83 82 82 82 82 82 84 85 87 87 87 85 86 85 85 86 87 87 86 89 71 65 63 62 62 62 75 80 81 83 85 86 86 86 85 86 86
85 84 83 83 83 82 82 82 82 82 83 84 84 86 87 86 86 87 85 86 86 86 85 85 88 75 63 62 61 60 64 78 79 81 82 84 85 85 86 86 86 86
85 85 84 83 83 82 83 83 84 84 84 84 84 85 86 88 88 87 87 87 87 87 88 86 87 78 62 61 60 59 67 79 80 81 82 82 84 85 86 85 85 81
84 85 85 85 83 84 84 84 84 84 84 84 84 85 86 86 87 87 87 87 90 89 81 85 88 81 62 61 59 58 67 79 81 82 81 82 84 84 85 86 85 82
82 83 84 85 85 84 84 85 85 86 86 85 85 85 85 86 87 86 86 87 89 89 90 88 87 88 77 58 59 57 60 78 82 81 81 81 83 83 84 84 85 86
MSLP
1018.45 1018.69 1019.09 1019.37 1019.53 1019.61 1019.85 1020.17 1020.17 1020.37 1020.53 1020.49 1020.73 1020.77 1020.89 1020.77 1020.81 1021.05 1021.21 1021.37 1021.53 1021.73 1021.89 1022.01 1022.05 1022.17 1022.13 1022.17 1022.25 1022.41 1022.53 1022.57 1022.49 1022.49 1022.65 1022.69 1022.77 1022.85 1023.01 1023.05 1023.05 1023.09
1018.17 1018.41 1018.65 1018.93 1019.29 1019.49 1019.65 1019.69 1019.93 1020.13 1020.33 1020.37 1020.37 1020.45 1020.49 1020.57 1020.69 1020.85 1021.09 1021.25 1021.37 1021.53 1021.61 1021.77 1021.89 1021.97 1022.05 1022.09 1022.17 1022.37 1022.49 1022.49 1022.61 1022.25 1022.61 1022.73 1022.65 1022.61 1022.77 1022.81 1022.85 1022.77
1017.93 1018.21 1018.49 1018.81 1018.97 1019.21 1019.33 1019.45 1019.65 1019.81 1019.97 1020.01 1020.13 1020.25 1020.37 1020.33 1020.61 1020.69 1020.85 1021.01 1021.17 1021.25 1021.45 1021.53 1021.69 1021.81 1021.85 1021.93 1022.05 1022.21 1022.29 1022.45 1022.57 1022.21 1022.45 1022.61 1022.45 1022.57 1022.49 1022.45 1022.57 1022.69
1017.69 1017.81 1018.01 1018.21 1018.37 1018.77 1019.01 1019.37 1019.61 1019.73 1019.73 1019.97 1020.05 1019.97 1020.13 1020.17 1020.33 1020.61 1020.77 1020.89 1021.01 1021.13 1021.13 1021.29 1021.45 1021.49 1021.65 1021.77 1021.93 1022.09 1022.05 1022.17 1022.05 1022.13 1022.37 1022.37 1022.37 1022.33 1022.41 1022.37 1022.41 1022.49
1017.29 1017.49 1017.61 1017.77 1017.97 1018.25 1018.65 1019.05 1019.29 1019.45 1019.57 1019.57 1019.69 1019.81 1020.05 1020.21 1020.33 1020.45 1020.61 1020.77 1020.85 1020.93 1020.97 1021.13 1021.21 1021.33 1021.45 1021.61 1021.73 1021.97 1021.89 1022.01 1021.89 1022.05 1022.33 1022.45 1022.25 1022.33 1022.25 1022.33 1022.57 1022.65
1016.89 1017.09 1017.29 1017.53 1017.73 1018.09 1018.45 1018.69 1018.85 1019.01 1019.21 1019.41 1019.49 1019.49 1019.69 1019.89 1020.09 1020.21 1020.33 1020.53 1020.53 1020.65 1020.73 1020.81 1021.01 1021.09 1021.17 1021.37 1021.53 1021.69 1021.69 1021.73 1021.65 1021.89 1022.17 1022.29 1022.13 1021.97 1022.05 1022.25 1022.45 1022.65
1016.49 1016.81 1017.09 1017.21 1017.53 1017.73 1018.13 1018.29 1018.45 1018.61 1018.77 1018.81 1019.05 1019.33 1019.37 1019.65 1019.85 1019.97 1020.09 1020.21 1020.33 1020.45 1020.57 1020.69 1020.89 1020.97 1020.97 1021.13 1021.37 1021.53 1021.53 1021.57 1021.57 1021.77 1022.01 1021.97 1022.01 1022.13 1021.97 1022.13 1022.33 1022.49
1016.09 1016.29 1016.61 1016.93 1017.25 1017.45 1017.77 1017.93 1018.09 1018.25 1018.33 1018.57 1018.89 1018.93 1019.05 1019.29 1019.49 1019.57 1019.77 1019.97 1020.17 1020.33 1020.45 1020.49 1020.65 1020.81 1020.77 1020.89 1021.17 1021.33 1021.41 1021.29 1021.49 1021.65 1021.85 1021.89 1021.85 1022.09 1022.01 1021.97 1022.09 1022.33
1015.65 1016.01 1016.29 1016.65 1016.97 1017.13 1017.37 1017.45 1017.65 1017.81 1017.93 1018.33 1018.45 1018.53 1018.65 1018.85 1019.05 1019.21 1019.49 1019.73 1019.97 1020.09 1020.25 1020.37 1020.45 1020.53 1020.53 1020.65 1020.81 1021.01 1021.17 1021.13 1021.09 1021.33 1021.57 1021.73 1021.81 1021.89 1021.85 1021.73 1022.01 1022.13
1015.41 1015.53 1015.85 1016.21 1016.61 1016.69 1016.89 1016.97 1017.09 1017.33 1017.53 1017.89 1018.05 1018.13 1018.41 1018.49 1018.61 1018.85 1019.17 1019.53 1019.77 1019.93 1020.05 1020.13 1020.21 1020.25 1020.29 1020.33 1020.53 1020.65 1020.81 1020.93 1020.93 1021.05 1021.13 1021.25 1021.41 1021.49 1021.49 1021.61 1021.77 1021.93
1015.05 1015.25 1015.57 1015.81 1016.01 1016.09 1016.33 1016.49 1016.69 1016.89 1017.13 1017.45 1017.69 1017.93 1017.93 1018.13 1018.37 1018.45 1018.85 1019.17 1019.41 1019.57 1019.69 1019.77 1019.81 1019.85 1020.05 1020.05 1020.09 1020.13 1020.33 1020.49 1020.57 1020.69 1020.81 1020.89 1020.97 1021.09 1021.17 1021.29 1021.45 1021.53
1014.69 1014.89 1015.13 1015.29 1015.49 1015.61 1015.81 1016.01 1016.21 1016.53 1016.77 1017.01 1017.21 1017.57 1017.69 1017.77 1018.01 1018.17 1018.37 1018.65 1018.77 1018.89 1018.97 1019.13 1019.25 1019.37 1019.57 1019.69 1019.69 1019.77 1019.97 1020.09 1020.21 1020.37 1020.41 1020.49 1020.57 1020.61 1020.73 1020.81 1021.01 1021.09
1014.25 1014.41 1014.53 1014.77 1015.05 1015.17 1015.29 1015.57 1015.81 1016.01 1016.29 1016.57 1016.69 1017.01 1017.29 1017.49 1017.57 1017.81 1017.89 1018.09 1018.25 1018.33 1018.45 1018.57 1018.73 1018.85 1019.09 1019.29 1019.41 1019.49 1019.65 1019.89 1019.97 1020.05 1020.13 1020.17 1020.17 1020.17 1020.21 1020.29 1020.37 1020.45
1013.73 1013.81 1014.09 1014.29 1014.49 1014.77 1015.05 1015.17 1015.37 1015.61 1015.85 1016.01 1016.25 1016.65 1016.85 1016.97 1017.13 1017.33 1017.41 1017.53 1017.73 1017.85 1017.89 1017.97 1018.21 1018.45 1018.65 1018.85 1018.97 1019.13 1019.33 1019.49 1019.65 1019.77 1019.85 1019.89 1019.85 1019.85 1019.85 1019.89 1019.89 1019.93
1013.37 1013.61 1013.77 1014.01 1014.29 1014.57 1014.81 1015.01 1015.13 1015.29 1015.49 1015.69 1015.93 1016.13 1016.21 1016.33 1016.49 1016.73 1017.05 1017.25 1017.33 1017.45 1017.57 1017.61 1017.81 1017.97 1018.05 1018.29 1018.61 1018.77 1018.85 1019.09 1019.21 1019.37 1019.53 1019.65 1019.69 1019.61 1019.57 1019.65 1019.61 1019.53
1013.13 1013.37 1013.57 1013.77 1014.13 1014.37 1014.49 1014.69 1014.89 1015.05 1015.21 1015.41 1015.61 1015.73 1015.89 1016.01 1016.21 1016.37 1016.57 1016.81 1017.09 1017.17 1017.21 1017.29 1017.37 1017.29 1017.37 1017.65 1017.89 1018.13 1018.41 1018.53 1018.73 1018.93 1019.09 1019.21 1019.41 1019.53 1019.45 1019.33 1019.25 1019.17
1012.85 1013.17 1013.33 1013.69 1013.69 1013.89 1014.17 1014.45 1014.65 1014.77 1014.97 1015.13 1015.29 1015.45 1015.61 1015.77 1015.97 1016.21 1016.29 1016.29 1016.49 1016.65 1016.81 1016.81 1016.77 1016.65 1016.89 1017.25 1017.57 1017.81 1017.97 1018.17 1018.45 1018.61 1018.69 1018.89 1019.05 1019.25 1019.37 1019.21 1019.01 1018.89
1012.45 1012.77 1013.13 1013.29 1013.45 1013.69 1013.81 1013.97 1014.21 1014.57 1014.81 1014.93 1015.09 1015.25 1015.33 1015.41 1015.73 1015.85 1015.93 1015.93 1016.01 1016.09 1016.21 1016.17 1016.13 1016.09 1016.45 1016.81 1017.17 1017.49 1017.73 1017.81 1017.89 1018.13 1018.29 1018.45 1018.57 1018.69 1018.73 1018.81 1018.81 1018.69
1012.09 1012.45 1012.73 1012.97 1013.09 1013.17 1013.33 1013.61 1013.97 1014.25 1014.45 1014.61 1014.73 1014.61 1014.85 1015.29 1015.37 1015.49 1015.61 1015.53 1015.61 1015.81 1015.81 1015.61 1015.61 1015.61 1016.09 1016.37 1016.73 1017.05 1017.41 1017.65 1017.53 1017.61 1017.85 1018.01 1018.05 1018.21 1018.29 1018.41 1018.45 1018.53
1011.81 1012.09 1012.37 1012.45 1012.57 1012.81 1013.05 1013.33 1013.57 1013.73 1013.65 1013.69 1013.93 1014.25 1014.61 1014.77 1014.85 1015.09 1015.09 1015.25 1015.25 1015.33 1015.33 1015.21 1015.17 1015.13 1015.57 1015.93 1016.29 1016.65 1016.97 1017.45 1017.29 1017.29 1017.41 1017.45 1017.57 1017.69 1017.77 1017.93 1018.05 1018.17
1011.61 1011.77 1011.97 1012.09 1012.21 1012.45 1012.77 1013.01 1013.17 1013.21 1013.37 1013.41 1013.49 1013.69 1013.93 1014.17 1014.25 1014.49 1014.53 1014.57 1014.61 1014.65 1014.81 1014.85 1014.61 1014.65 1015.13 1015.49 1015.85 1016.25 1016.61 1017.13 1017.05 1017.01 1017.01 1017.09 1017.09 1017.13 1017.29 1017.37 1017.45 1017.53
1011.29 1011.53 1011.61 1011.73 1011.97 1012.17 1012.49 1012.65 1012.73 1012.85 1013.05 1013.05 1013.21 1013.17 1013.17 1013.25 1013.41 1013.45 1013.65 1013.73 1013.69 1013.85 1014.17 1014.33 1013.93 1014.13 1014.61 1015.01 1015.37 1015.81 1016.37 1016.89 1016.85 1016.93 1016.89 1016.81 1016.81 1016.77 1016.81 1016.81 1016.89 1017.01
1010.97 1011.13 1011.33 1011.45 1011.57 1011.89 1012.13 1012.21 1012.37 1012.41 1012.45 1012.49 1012.93 1012.97 1013.05 1013.17 1013.17 1013.13 1013.05 1013.09 1013.13 1013.17 1013.37 1013.37 1013.25 1013.37 1013.89 1014.33 1014.81 1015.33 1016.21 1016.37 1016.41 1016.53 1016.57 1016.57 1016.45 1016.33 1016.33 1016.29 1016.33 1016.41
1010.65 1010.77 1011.05 1011.17 1011.33 1011.57 1011.61 1011.61 1011.57 1011.69 1011.93 1011.93 1012.33 1012.49 1012.57 1012.45 1012.49 1012.69 1012.65 1012.69 1012.81 1012.85 1012.73 1012.93 1012.73 1012.65 1013.17 1013.65 1014.13 1014.77 1015.33 1015.61 1015.85 1016.09 1016.17 1016.21 1016.09 1015.93 1015.85 1015.81 1015.77 1015.93
1010.61 1010.53 1010.61 1010.77 1011.01 1011.01 1011.01 1011.21 1011.29 1011.37 1011.29 1011.45 1011.69 1011.93 1012.01 1011.89 1012.01 1012.09 1012.09 1012.05 1012.01 1012.13 1012.25 1012.61 1012.45 1012.33 1012.69 1013.05 1013.49 1014.05 1014.73 1014.89 1015.13 1015.45 1015.81 1015.73 1015.69 1015.69 1015.45 1015.41 1015.33 1015.37
1010.85 1010.57 1010.41 1010.45 1010.53 1010.57 1010.61 1010.73 1010.73 1010.85 1011.01 1011.21 1011.37 1011.49 1011.69 1011.77 1011.77 1011.81 1011.89 1011.69 1011.45 1011.61 1011.73 1011.85 1012.05 1011.89 1012.13 1012.57 1012.89 1013.41 1013.93 1014.13 1014.37 1014.97 1015.21 1015.21 1015.13 1015.21 1015.33 1015.09 1014.97 1014.89
Wind_Speed
10 9 10 9 8 7 7 7 7 7 6 6 6 5 6 5 5 6 6 6 6 6 6 6 5 5 4 4 4 3 3 3 3 2 3 3 4 4 4 4 4 4
12 11 9 9 7 6 6 7 7 7 6 6 5 5 5 5 5 6 6 7 7 7 7 7 6 6 5 5 5 4 4 3 4 2 3 4 4 4 5 5 4 4
12 12 11 12 11 12 12 9 8 7 7 7 6 6 5 5 5 6 6 7 7 7 7 7 7 7 6 6 5 5 5 4 4 4 3 4 4 4 4 4 4 5
13 13 13 13 12 11 10 8 8 7 7 7 8 7 6 5 5 6 6 7 6 7 6 7 7 7 6 6 6 5 6 5 4 3 4 3 4 4 4 4 4 4
15 14 13 12 11 10 9 10 11 9 10 8 7 6 6 6 6 6 6 6 6 6 6 7 6 7 6 6 6 6 5 5 5 5 4 4 4 4 4 4 5 5
13 12 12 11 10 10 10 11 11 11 11 9 9 7 7 7 7 7 7 7 7 7 7 7 7 7 7 7 7 6 6 6 5 6 6 5 5 4 4 4 5 5
14 13 14 12 12 11 11 11 10 10 10 10 7 8 7 8 8 8 7 7 7 6 7 7 7 7 7 6 7 7 7 7 6 6 6 6 5 5 5 5 5 5
15 13 13 12 14 12 13 11 11 11 10 9 10 9 9 9 9 8 8 8 8 8 7 7 7 7 7 7 7 7 8 6 7 7 7 7 5 6 5 4 5 5
14 13 13 14 15 13 14 14 12 12 10 11 11 10 10 10 10 9 8 8 8 7 7 7 8 8 8 8 8 8 8 8 7 7 8 8 7 7 7 6 6 6
14 14 15 15 15 14 15 15 13 12 11 12 12 10 10 10 10 10 9 8 9 9 8 8 8 8 8 8 9 9 9 9 8 8 8 8 8 8 8 7 7 7
16 15 14 16 16 14 16 15 14 12 11 13 12 12 11 10 10 10 10 10 10 10 10 10 10 9 9 9 9 9 9 9 9 8 8 9 9 8 8 8 8 8
15 15 16 17 16 16 16 15 14 13 12 11 13 13 12 11 11 10 10 11 11 11 11 11 10 10 10 10 10 9 9 9 8 9 9 9 9 9 9 9 9 9
16 16 15 15 15 15 13 13 14 14 14 13 13 13 13 13 12 12 10 11 12 12 12 11 11 11 10 10 10 9 9 9 9 9 9 9 9 10 10 10 10 9
15 15 15 14 13 12 13 13 13 13 13 13 12 13 14 14 14 14 12 12 12 12 12 11 10 10 10 10 10 10 10 10 10 10 10 10 10 10 10 10 10 10
13 12 12 13 12 12 13 13 13 13 12 12 12 12 12 13 14 13 13 12 12 12 12 11 11 11 10 10 10 11 11 11 11 11 11 11 10 11 10 10 11 10
12 11 12 12 12 13 13 13 13 12 13 13 13 13 12 12 12 12 13 13 13 12 12 11 11 10 11 15 13 10 11 10 10 10 11 11 10 10 10 11 11 11
11 12 12 12 13 12 12 13 13 12 12 12 13 13 13 12 12 13 13 13 14 14 14 12 11 11 16 16 16 16 12 10 10 10 10 11 11 10 10 11 11 11
12 13 13 13 12 13 13 13 12 12 12 12 12 13 12 12 13 14 14 14 13 14 14 14 13 14 16 17 17 17 15 12 11 11 10 10 11 12 10 10 11 11
12 13 13 13 13 14 13 12 13 13 13 13 15 14 12 13 14 14 14 14 14 14 15 15 14 14 16 17 18 18 18 15 12 11 11 11 11 11 12 11 10 10
12 13 14 14 13 13 12 13 14 15 15 15 13 12 12 13 15 15 14 14 14 15 14 14 15 14 17 18 18 18 18 15 13 14 12 12 12 12 11 11 11 10
12 13 13 13 13 13 13 13 14 14 14 13 13 14 14 14 15 15 14 15 16 16 14 15 14 16 16 18 19 19 18 15 12 13 12 12 12 12 12 12 12 11
12 13 13 12 12 13 13 14 14 14 14 13 12 13 13 13 13 15 16 17 17 17 16 16 15 17 17 18 19 18 17 10 11 12 13 13 12 12 12 11 12 12
12 13 13 13 13 13 14 15 14 14 14 11 13 14 13 13 14 14 14 15 17 17 17 16 16 16 19 19 19 19 13 10 10 11 12 14 14 13 12 12 12 12
10 12 12 12 12 13 15 14 14 12 12 12 14 14 15 15 13 13 13 14 16 17 16 16 16 15 20 20 20 19 16 12 10 11 12 13 13 13 12 11 13 16
8 10 11 12 13 14 14 14 14 13 12 11 12 12 14 13 12 12 13 13 15 17 16 17 16 14 19 20 21 20 17 11 11 11 12 13 13 13 13 12 12 13
10 10 11 12 13 13 12 12 11 12 12 12 13 12 12 12 12 12 14 13 13 14 14 17 17 15 14 21 21 21 22 13 11 11 13 14 14 13 12 12 12 12
Wind_Direction
188 188 192 193 200 202 193 193 201 202 200 205 212 212 214 212 196 189 190 188 191 198 201 212 215 216 219 220 220 222 228 229 240 214 226 229 229 223 220 218 229 237
194 191 189 190 188 188 197 199 195 199 199 203 210 211 216 214 200 198 195 195 195 201 197 198 204 211 217 222 215 218 218 218 229 213 227 227 234 223 226 227 236 238
197 194 193 196 198 196 201 199 199 201 207 208 202 210 216 212 213 198 201 199 201 203 196 197 198 202 210 220 217 223 224 215 228 224 224 235 232 225 229 225 226 223
200 198 200 203 202 191 189 186 194 200 207 200 205 207 206 207 204 204 204 203 207 203 200 197 202 201 203 210 217 227 227 226 231 215 224 230 225 231 227 222 233 229
200 199 201 202 200 188 183 189 199 199 207 209 203 194 196 200 203 208 205 205 209 208 200 201 200 206 199 205 211 227 225 228 214 206 218 226 219 216 230 222 219 230
198 200 199 199 194 185 191 197 199 198 201 204 204 199 203 200 207 210 209 210 211 212 210 206 204 207 206 204 207 221 230 233 219 204 217 225 235 219 231 215 221 226
195 196 201 201 201 194 196 199 198 198 200 207 192 202 199 202 207 210 209 212 218 216 215 208 205 205 204 205 207 214 221 228 232 217 221 225 222 228 228 221 224 227
200 199 199 200 201 197 200 200 201 198 198 191 199 202 200 207 209 211 210 211 217 218 217 215 208 205 209 207 212 215 220 221 223 222 223 229 224 227 222 227 224 229
198 199 196 198 201 203 205 206 203 203 196 198 205 204 199 206 208 210 203 202 214 218 213 217 213 213 212 212 214 214 218 223 223 220 225 230 227 225 227 226 228 235
196 199 198 199 203 207 208 208 207 203 198 203 206 207 201 201 205 204 199 198 209 214 214 217 216 215 215 214 215 217 219 221 221 221 226 232 235 234 229 223 230 238
202 200 201 201 204 207 209 207 207 205 200 205 207 212 211 204 201 200 197 197 207 212 213 214 217 215 214 219 219 218 220 223 223 222 226 229 233 233 231 229 229 236
201 201 203 203 204 207 208 207 206 206 204 202 206 210 211 212 208 204 201 201 206 209 211 213 213 214 214 219 223 221 219 223 224 226 229 229 231 232 230 228 232 233
199 201 203 203 203 206 207 206 206 207 206 206 204 209 210 214 215 212 207 206 207 210 213 212 211 212 213 216 221 223 221 221 227 228 230 231 233 234 236 234 234 235
199 202 204 204 204 201 203 205 206 206 207 208 204 206 211 214 216 214 212 211 213 213 215 213 210 210 210 213 216 219 219 223 224 230 232 232 234 233 235 238 238 237
198 202 204 202 199 196 198 203 205 205 204 203 202 207 211 215 217 218 218 216 216 215 216 216 217 215 212 210 212 215 219 225 226 227 229 232 234 235 234 234 238 241
195 196 199 200 197 199 199 202 205 204 203 204 206 208 212 212 214 216 218 217 216 215 215 217 218 218 210 208 209 213 214 222 224 226 229 232 232 234 235 233 235 239
193 198 199 198 199 199 198 201 204 205 205 207 207 207 208 206 206 212 218 221 222 221 219 219 221 221 213 206 210 214 219 221 220 224 223 224 229 230 233 235 236 235
196 198 199 203 201 202 201 200 200 201 203 204 206 208 205 206 210 214 219 221 223 224 225 225 225 220 208 208 208 211 213 222 228 229 229 226 227 230 232 233 235 236
196 195 198 202 202 202 200 197 198 202 207 209 212 212 209 207 212 213 214 217 222 224 227 228 231 215 204 206 208 208 209 215 231 233 231 230 227 226 229 230 229 232
196 198 201 203 202 201 199 199 200 204 207 208 210 206 205 207 211 213 215 215 218 223 227 230 232 220 201 204 206 207 207 205 225 230 234 235 233 229 229 228 226 228
199 201 204 203 201 199 200 204 206 210 209 208 208 206 204 205 210 213 214 213 216 218 223 227 230 223 202 202 205 206 206 200 219 226 234 237 234 231 230 228 228 227
205 206 207 205 203 201 203 206 209 208 209 209 215 219 218 215 211 212 211 212 214 217 221 226 230 213 201 201 203 205 199 199 214 221 229 234 235 232 229 227 227 228
214 212 210 208 204 203 206 210 210 210 211 207 212 219 221 220 220 217 219 220 218 215 216 221 226 207 195 199 202 201 187 205 209 218 224 230 235 233 231 228 225 223
223 219 218 211 207 207 210 212 212 212 211 204 211 215 221 223 221 224 224 224 224 223 219 221 225 206 188 195 199 192 187 198 205 214 222 227 233 233 233 231 226 219
253 234 226 220 215 216 217 217 213 211 209 205 211 216 224 225 224 227 227 226 227 228 222 225 232 217 187 193 195 189 189 202 205 212 220 226 227 231 229 230 230 219
286 254 235 228 225 223 221 221 217 217 215 211 215 219 222 223 225 228 231 232 231 231 230 224 230 232 194 191 189 190 188 196 204 208 221 222 225 228 230 229 229 231